EW0364 Weather Reports


Display with metric or nautical units.
time (UTC)temp
F
wind
direction
speed
MPH
gust
MPH
rain 1hr
in
rain 24hr
in
rain mn
in
humidity
%
barometer
mb
20260505061359 52 229 4.0 10.0 0.00 0.00 0.00 87 1011.4
20260505060459 52 241 3.0 9.0 0.00 0.00 0.00 87 1011.4
20260505055559 52 219 3.0 9.0 0.00 0.00 0.00 86 1011.4
20260505054659 52 216 4.0 12.0 0.00 0.00 0.00 87 1011.4
20260505053759 52 219 3.0 9.0 0.00 0.00 0.00 86 1011.4
20260505052859 52 243 2.0 7.0 0.00 0.00 0.00 86 1011.5
20260505051959 53 249 4.0 14.0 0.00 0.00 0.00 86 1011.4
20260505051059 53 243 4.0 16.0 0.00 0.00 0.00 86 1011.6
20260505050159 53 242 4.0 10.0 0.00 0.00 0.00 86 1011.7
20260505041658 53 204 4.0 12.0 0.00 0.00 0.00 85 1011.8
20260505040758 53 203 5.0 12.0 0.00 0.00 0.00 85 1011.8
20260505034958 53 197 5.0 15.0 0.00 0.00 0.00 84 1011.8
20260505031359 53 205 3.0 8.0 0.00 0.00 0.00 83 1012.1
20260505030458 53 204 4.0 11.0 0.00 0.00 0.00 83 1012.0
20260505024659 53 229 3.0 9.0 0.00 0.00 0.00 82 1012.1
20260505023758 53 242 4.0 10.0 0.00 0.00 0.00 82 1012.0
20260505022858 54 231 5.0 11.0 0.00 0.00 0.00 82 1012.2
20260505021958 54 243 6.0 14.0 0.00 0.00 0.00 81 1012.1
20260505021058 54 247 5.0 14.0 0.00 0.00 0.00 81 1012.1
20260505020158 54 243 5.0 13.0 0.00 0.00 0.00 81 1012.0
20260505015258 54 244 5.0 11.0 0.00 0.00 0.00 81 1012.0
20260505014358 54 240 5.0 15.0 0.00 0.00 0.00 80 1012.0
20260505013458 54 226 6.0 17.0 0.00 0.00 0.00 80 1011.9
20260505012558 54 226 7.0 16.0 0.00 0.00 0.00 80 1011.7
20260505005858 54 224 7.0 15.0 0.00 0.00 0.00 78 1011.3
20260505004958 54 237 8.0 22.0 0.00 0.00 0.00 76 1011.2
20260505004059 55 236 9.0 22.0 0.00 0.00 0.00 75 1011.1
20260505003158 55 229 10.0 22.0 0.00 0.00 0.00 75 1011.0
20260505002258 55 237 8.0 22.0 0.00 0.00 0.00 73 1010.8
20260505001358 55 241 9.0 22.0 0.00 0.00 0.00 72 1010.6
20260505000458 56 232 9.0 20.0 0.00 0.00 0.00 71 1010.4
20260504235558 56 229 9.0 22.0 0.00 0.00 0.00 71 1010.3
20260504233758 56 239 9.0 22.0 0.00 0.00 0.00 71 1010.2
20260504231958 56 228 8.0 20.0 0.00 0.00 0.00 70 1009.9
20260504231058 57 241 8.0 19.0 0.00 0.00 0.00 69 1010.0
20260504230158 57 231 10.0 23.0 0.00 0.00 0.00 68 1010.0
20260504225258 57 240 6.0 16.0 0.00 0.00 0.00 67 1009.9
20260504224358 58 247 9.0 20.0 0.00 0.00 0.00 66 1009.8
20260504222558 58 221 10.0 23.0 0.00 0.00 0.00 66 1009.8
20260504221658 58 229 9.0 23.0 0.00 0.00 0.00 64 1009.8
20260504220758 58 212 9.0 18.0 0.00 0.00 0.00 63 1009.7
20260504214958 59 220 9.0 24.0 0.00 0.00 0.00 62 1009.8
20260504214058 59 219 9.0 20.0 0.00 0.00 0.00 63 1009.8
20260504213158 59 223 10.0 23.0 0.00 0.00 0.00 63 1009.7
20260504212258 59 215 10.0 27.0 0.00 0.00 0.00 64 1009.7
20260504211358 59 216 11.0 27.0 0.00 0.00 0.00 63 1009.9
20260504210458 59 217 11.0 25.0 0.00 0.00 0.00 62 1009.7
20260504205558 60 219 10.0 23.0 0.00 0.00 0.00 61 1009.6
20260504204657 60 227 11.0 23.0 0.00 0.00 0.00 60 1009.8
20260504202858 60 227 10.0 20.0 0.00 0.00 0.00 59 1009.5
20260504201959 61 239 10.0 21.0 0.00 0.00 0.00 59 1009.5
20260504201057 61 234 9.0 24.0 0.00 0.00 0.00 56 1009.4
20260504195257 62 229 13.0 33.0 0.00 0.00 0.00 52 1009.4
20260504194358 62 238 12.0 28.0 0.00 0.00 0.00 49 1009.5
20260504193457 62 221 12.0 33.0 0.00 0.00 0.00 50 1009.7
20260504192558 64 225 11.0 29.0 0.00 0.00 0.00 48 1009.5
20260504191658 64 225 12.0 22.0 0.00 0.00 0.00 50 1009.7
20260504190757 64 234 12.0 28.0 0.00 0.00 0.00 44 1009.9
20260504185858 64 251 14.0 29.0 0.00 0.00 0.00 44 1009.8
20260504184957 65 252 13.0 33.0 0.00 0.00 0.00 43 1009.9
20260504184057 65 251 11.0 33.0 0.00 0.00 0.00 41 1009.9
20260504183157 65 235 11.0 25.0 0.00 0.00 0.00 44 1010.0
20260504182257 65 245 11.0 23.0 0.00 0.00 0.00 46 1010.0
20260504181357 65 222 11.0 22.0 0.00 0.00 0.00 49 1009.8
20260504175557 65 228 9.0 31.0 0.00 0.00 0.00 50 1009.6
20260504174657 65 222 11.0 22.0 0.00 0.00 0.00 50 1009.7
20260504173757 64 211 10.0 23.0 0.00 0.00 0.00 50 1009.7
20260504172857 64 223 10.0 22.0 0.00 0.00 0.00 49 1009.9
20260504171957 64 210 9.0 27.0 0.00 0.00 0.00 49 1009.9
20260504171057 65 217 8.0 20.0 0.00 0.00 0.00 47 1009.8
20260504170157 65 243 11.0 22.0 0.00 0.00 0.00 44 1010.0
20260504150457 62 246 9.0 23.0 0.00 0.00 0.00 49 1010.9
20260504141057 62 232 8.0 16.0 0.00 0.00 0.00 52 1011.2
20260504140157 61 220 9.0 18.0 0.00 0.00 0.00 52 1011.1
20260504130758 60 278 8.0 19.0 0.00 0.00 0.00 48 1011.4
20260504110156 51 258 4.0 10.0 0.00 0.01 0.00 67 1011.5
20260504081956 48 226 1.0 2.0 0.00 0.01 0.00 69 1011.1
20260504081056 48 226 1.0 3.0 0.00 0.01 0.00 69 1011.0
20260504080156 48 226 0.0 3.0 0.00 0.01 0.00 68 1011.0